Regional Weather Roundup
Issued by NWS

Home | Current Version | Previous Version | Graphics & Text | Print | Product List | Glossary Off
Versions: 1 2 3 4 5 6 7 8 9 10 11 12 13 14 15 16 17 18 19 20 21 22 23 24 25 26 27 28 29 30 31 32 33 34 35 36 37 38 39 40 41 42 43 44 45 46 47 48 49 50

000
ASUS43 KMPX 221010
RWRMN
WEATHER ROUNDUP FOR MINNESOTA
NATIONAL WEATHER SERVICE TWIN CITIES/CHANHASSEN MN
500 AM CDT SUN OCT 22 2017


NOTE: "FAIR" INDICATES FEW OR NO CLOUDS BELOW 12,000 FEET WITH NO
SIGNIFICANT WEATHER AND/OR OBSTRUCTIONS TO VISIBILITY. N/A MEANS
CURRENT SKY AND/OR WEATHER CONDITIONS ARE NOT AVAILABLE.

MNZ060>063-068>070-221100-
   Twin Cities Metro

CITY           SKY/WX    TMP DP  RH WIND       PRES   REMARKS
TWIN CITIES    MOCLDY    50  43  77 W8        29.90R
ST PAUL        CLOUDY    49  43  80 W7        29.91R
CRYSTAL        CLOUDY    49  39  68 W9        29.89R
BLAINE         CLOUDY    52  43  71 W10G17    29.89R
LAKEVILLE      CLOUDY    46  43  87 W5        29.91S
EDEN PRAIRIE   CLOUDY    48  42  80 W7        29.90R
SOUTH ST PAUL  CLOUDY    49  42  75 W9        29.90S
LAKE ELMO      FAIR      48  43  81 W9        29.90R
$$
MNZ001>005-007-008-013>017-022>024-027-028-221100-
   Northwest Minnesota

CITY           SKY/WX    TMP DP  RH WIND       PRES   REMARKS
BEMIDJI        MOCLDY    45  37  71 W14G22    29.74R
HALLOCK        CLOUDY    48  39  71 SW17      29.64S
ROSEAU         CLOUDY    45  39  81 SW12      29.63S
WARROAD        CLOUDY    45  41  87 SW12G17   29.63S
THIEF RVR FALL PTCLDY    45  37  73 SW18G25   29.72R
CROOKSTON      CLEAR     46  36  66 W17       29.75R
FOSSTON        CLEAR     43  36  75 SW13      29.76R
DETROIT LAKES  CLEAR     45  36  70 W13G20    29.83R
MOORHEAD       CLEAR     43  36  75 SW9       29.84R
PARK RAPIDS    MOCLDY    43  38  82 W9        29.79R
MAHNOMEN       FAIR      43  37  79 SW15      29.79R
$$
MNZ006-009>011-018-025>026-221100-
   North Central Minnesota

CITY           SKY/WX    TMP DP  RH WIND       PRES   REMARKS
BAUDETTE       CLOUDY    47  39  74 SW18G30   29.63S
FLAG ISLAND    LGT RAIN  46  43  87 SW17G24   29.57F
INTL FALLS     CLOUDY    45  43  93 SW9       29.65S
WASKISH        CLOUDY    48  39  71 SW18G26   29.68S
BIG FORK       CLOUDY    46  41  81 SW12G17   29.71R
LONGVILLE      CLOUDY    46  41  81 SW10G16   29.78R
GRAND RAPIDS   CLOUDY    46  41  82 SW7       29.78R
CRANE LAKE     CLOUDY    46  45  93 S5        29.70R
ORR            CLOUDY    45  41  87 S8        29.68S
COOK           CLOUDY    46  43  87 SW8       29.72R
WALKER         FAIR      45  37  73 W13G22    29.77R
$$
MNZ012-019>021-037-221100-
   Northeast Minnesota

CITY           SKY/WX    TMP DP  RH WIND       PRES   REMARKS
DULUTH         CLOUDY    45  44  97 W14       29.77R
ELY            CLOUDY    48  45  87 SW8       29.71S
HIBBING        CLOUDY    44  42  93 SW6       29.74R
EVELETH        CLOUDY    45  45  99 SW10      29.75S
DULUTH HARBOR  MOCLDY    50  46  87 SW12      29.79S
TWO HARBORS    PTCLDY    50  45  81 SW6       29.74S
SILVER BAY     CLOUDY    48  46  93 W6        29.72S
GRAND MARAIS     N/A     50  49  96 W10       29.69R
G MARAIS ARPRT CLOUDY    52  46  82 SW7       29.70R
$$
MNZ029>031-032-039>041-046>048-054>057-064-221100-
   West Central Minnesota

CITY           SKY/WX    TMP DP  RH WIND       PRES   REMARKS
FERGUS FALLS   CLEAR     39  36  87 SW6       29.87R
WHEATON        CLEAR     45  36  70 SW7       29.91R
MORRIS         CLEAR     39  36  87 S3        29.89R
ALEXANDRIA     PTCLDY    44  38  79 W10       29.89R
ELBOW LAKE     FAIR      38  37  93 W8        29.88R
WADENA         PTCLDY    43  37  81 SW8       29.83R
GLENWOOD       PTCLDY    43  39  87 W10       29.89R
APPLETON       CLEAR     43  36  75 SW7       29.92R
BENSON         PTCLDY    43  37  81 W8        29.93R
ORTONVILLE     CLEAR     43  36  75 NW3       29.92R
MADISON        CLEAR     43  37  81 CALM      29.93R
WILLMAR        FAIR      45  41  87 SW7       29.93R
$$
MNZ033>034-036-042>043-049>051-058-059-221100-
   Central Minnesota

CITY           SKY/WX    TMP DP  RH WIND       PRES   REMARKS
ST CLOUD       PTCLDY    45  41  86 SW8       29.89R
SAUK CENTRE    FAIR      45  39  82 W12       29.89R
PAYNESVILLE    MOCLDY    46  41  85 W8        29.91R
AITKIN         MOCLDY    45  39  81 SW8       29.80R
PINE RIVER     CLOUDY    45  37  76 W5        29.84R
BRAINERD       CLOUDY   N/A N/A N/A W12       29.83R
STAPLES        MOCLDY    45  37  76 W9        29.84R
LONG PRAIRIE   FAIR      43  37  81 S7        29.88R
LITTLE FALLS   CLOUDY    45  34  65 SW3       29.87R
LITCHFIELD     PTCLDY    46  43  87 W3        29.92R
BUFFALO        CLOUDY    46  41  81 SW5       29.92R
MAPLE LAKE     CLOUDY    47  43  87 SW7       29.91R
HUTCHINSON     CLEAR     45  41  86 W5        29.94R
$$
MNZ037-044-045-052-053-221100-
   East Central Minnesota

CITY           SKY/WX    TMP DP  RH WIND       PRES   REMARKS
PRINCETON      CLOUDY    46  43  87 SW5       29.89R
MORA           CLOUDY    45  41  87 W7        29.87R
CAMBRIDGE      PTCLDY    50  39  66 SW9       29.88R
RUSH CITY      PTCLDY    47  42  82 SW7       29.86R
MOOSE LAKE     PTCLDY    43  41  93 CALM      29.80R
HINCKLEY       FAIR      45  43  93 SW7       29.84R
CLOQUET        CLOUDY    45  41  87 SW7       29.79R
MCGREGOR       CLOUDY    45  41  87 SW7       29.81R
$$
MNZ071>073-080-081-089-090-097-098-221100-
   Southwest Minnesota

CITY           SKY/WX    TMP DP  RH WIND       PRES   REMARKS
MONTEVIDEO     CLOUDY    43  36  75 W5        29.93R
GRANITE FALLS  CLOUDY    42  39  88 SW6       29.95S
CANBY          CLEAR     45  37  71 SW12      29.94S
MARSHALL       CLOUDY    45  37  73 W12       29.94R
REDWOOD FALLS  CLOUDY    47  38  71 W10       29.94R
OLIVIA         CLOUDY    43  37  81 SW6       29.92S
PIPESTONE      CLEAR     36  34  93 CALM      29.96S
WORTHINGTON    CLOUDY    41  37  86 SW8       29.97S
JACKSON        CLOUDY    43  37  81 W6        29.97R
TRACY          CLOUDY    45  39  80 SW9       29.95S
SLAYTON        PTCLDY    43  37  78 W9        29.97R
$$
MNZ065>067-074>077-082>085-091>093-221100-
   South Central Minnesota

CITY           SKY/WX    TMP DP  RH WIND       PRES   REMARKS
MANKATO        CLOUDY    47  41  80 W9        29.94
NEW ULM          N/A     43  39  87 CALM      29.94S
ST JAMES       PTCLDY    46  39  76 W6        29.96S
FAIRMONT       CLOUDY    47  40  76 W9        29.96R
GLENCOE        CLOUDY    47  42  84 SW5       29.92R
FARIBAULT      CLOUDY    48  43  81 W9        29.93R
OWATONNA       CLOUDY    48  43  81 W7        29.93R
WASECA         CLOUDY    45  41  87 W5        29.95R
$$
MNZ078>079-086>088-094>096-221100-
   Southeast Minnesota

CITY           SKY/WX    TMP DP  RH WIND       PRES   REMARKS
ROCHESTER      CLOUDY    48  44  86 W9        29.92R
RED WING       CLOUDY    52  43  71 W8        29.90R
STANTON        CLOUDY    50  43  75 W7        29.91R
DODGE CENTER   CLOUDY    48  43  81 W8        29.92S
WINONA         LGT RAIN  52  45  76 NW6       29.91R
AUSTIN         CLOUDY    48  43  81 W6        29.94R
PRESTON        CLOUDY    48  43  82 W8        29.94R
$$
ABBREVIATIONS USED IN REMARKS
   TC - TEMPERATURES IN CELSIUS
  WCI - WIND CHILL INDEX
   HX - HEAT INDEX
  VSB - VISIBILITY
$$




USA.gov is the U.S. government's official web portal to all federal, state and local government web resources and services.